This demonstration page uses our WeatherBlox Daily Observations layout. Learn more.

Left ArrowRight Arrow

36.17497, -115.13722

Hourly Observations for May 10, 2017

Temp ( °F °C ) Dew Point ( °F °C ) Humidity (%) Winds ( mph kmh ) Pressure ( in mb ) Visibility ( mi km ) Precip ( " mm )
12:53 am 00:53 Clear 56 13.3 50 10 81 81 SSE 5 7 29.98 1015 10 16 0.00 0.00
1:53 am 01:53 Clear 56 13.3 49 9.4 77 77 Calm 29.99 1016 10 16 0.00 0.00
2:53 am 02:53 Clear 55 12.8 50 10 83 83 SSE 8 13 29.98 1015 10 16 0.00 0.00
3:53 am 03:53 Clear 55 12.8 50 10 83 83 SW 5 7 29.99 1016 10 16 0.00 0.00
4:53 am 04:53 Mostly Clear 51 10.6 49 9.4 92 92 Calm 30.00 1016 10 16 0.00 0.00
5:53 am 05:53 Sunny 55 12.8 50 10 83 83 NE 3 6 30.01 1016 10 16 0.00 0.00
6:53 am 06:53 Sunny 56 13.3 49 9.4 77 77 NE 3 6 30.03 1017 10 16 0.00 0.00
7:53 am 07:53 Sunny 57 13.9 50 10 78 78 Calm 30.04 1017 10 16 0.00 0.00
8:53 am 08:53 Partly Cloudy 57 13.9 49 9.4 74 74 Calm 30.04 1017 10 16 0.00 0.00
9:53 am 09:53 Sunny 60 15.6 49 9.4 67 67 S 3 6 30.04 1017 10 16 0.00 0.00
10:53 am 10:53 Sunny 64 17.8 48 8.9 56 56 SE 7 11 30.03 1017 10 16 0.00 0.00
11:53 am 11:53 Sunny 66 18.9 48 8.9 52 52 VRB 3 6 30.02 1017 10 16 0.00 0.00
12:53 pm 12:53 Sunny 69 20.6 48 8.9 47 47 SE 6 9 30.01 1016 10 16 0.00 0.00
1:53 pm 13:53 Sunny 72 22.2 48 8.9 43 43 SSE 10 17 29.99 1016 10 16 0.00 0.00
2:53 pm 14:53 Sunny 75 23.9 48 8.9 39 39 undefined N/A 29.97 1015 10 16 0.00 0.00
3:53 pm 15:53 Sunny 75 23.9 48 8.9 39 39 E 12 19 29.95 1014 10 16 0.00 0.00
4:53 pm 16:53 Sunny 75 23.9 48 8.9 39 39 ESE 8 13 29.95 1014 10 16 0.00 0.00
5:53 pm 17:53 Sunny 76 24.4 48 8.9 37 37 SE 9 15 29.93 1014 10 16 0.00 0.00
6:53 pm 18:53 Sunny 74 23.3 48 8.9 40 40 ESE 10 17 29.93 1013 10 16 0.00 0.00
7:53 pm 19:53 Clear 74 23.3 48 8.9 40 40 ESE 12 19 29.93 1014 10 16 0.00 0.00
8:53 pm 20:53 Clear 66 18.9 50 10 56 56 ESE 10 17 29.96 1015 10 16 0.00 0.00
9:53 pm 21:53 Clear 70 21.1 50 10 49 49 E 8 13 29.98 1015 10 16 0.00 0.00
10:53 pm 22:53 Clear 70 21.1 50 10 49 49 E 12 19 29.98 1015 10 16 0.00 0.00
11:53 pm 23:53 Clear 68 20 50 10 53 53 E 13 20 29.99 1016 10 16 0.00 0.00

Powered by AerisWeather